ELEKTRON 3 DEB, 831

Orbit data source: Space-Track

ELEKTRON 3 DEB, 831 is space debris in LEO originally from a launch on Fri, 10 Jul 1964 UTC launched from the Tyuratam Missile And Space Complex (TTMTR). Debris objects in space refer to the collection of defunct objects orbiting the Earth. Examples of debris include non-operational satellites, rocket bodies, and fragments generated from explosions, collisions, or faulty payload assembly.

Loading next visibility...
Identifier
831, 1964-038C
Orbit
LEO
Country
Flag of CISCIS
Related business
Manufacturer
OKB-1
Mission
Spacecraft
Bus & Motor
ADAPTER, Unknown motor
Mass
Unknown
Launch date (UTC)
1964-07-10 (61 years ago)
Launch vehicle
Unknown
Launch site
Tyuratam Missile And Space Complex (TTMTR)
Object type
Payload
Rocket body
Debris
Shape & HBR
Unknown shape, 0.3 m
Radar Cross Section
Medium (>0.1 m² and <1 m²)

Expand to show TLE details & history
Last TLE update: 12 hours ago

TLE from 12 hours ago
0 ELEKTRON 3 DEB
1   831U 64038C   25312.51332950  .00025277  00000-0  24963-2 0  9993
2   831  60.6820  36.8116 1274244 270.9349  74.6244 12.72632731337733
Epoch: 2025-11-08T12:19Z
TLE epoch observation values (Epoch: 2025-11-08T12:19:11.668Z)
Latitude
-0.00005°
Longitude
164.07109°
Altitude
1,232.771 km
Speed
7.304 km/s
True Right ascension
02h 27m 14s
True Declination
0° 00' 00"
Sunlit
Object was in full shadow at epoch
Visualization orbit readout
Latitude
Unknown
Longitude
Unknown
Altitude
Unknown
Speed
Unknown
Apparent Right ascension
Unknown
Apparent Declination
Unknown
Sunlit
N/A
Visualization observer readout
Local Sidereal Time
20:35:29
Azimuth
Unknown
Elevation
Unknown
Doppler factor
Unknown
Orbital elements
Apogee altitude
2,357.777 km
Perigee altitude
383.066 km
Semi-major axis
7,748.558 km
Eccentricity
0.12742
Inclination
60.682°
RAAN
36.8116°
Arg. of periapsis
270.9349°
True anomaly
89.16478°
Mean anomaly
74.6244°
Eccentric anomaly
81.85157°
Mean motion
3.18209 °/min
Orbital period
113.13 mins
BSTAR
0.0024963
Loading maneuver chart data...
Computing Atmospheric mass density...
Loading historical data...
Loading historical data...
Loading historical data...
Loading historical data...
Loading historical data...
Loading historical data...
Loading historical data...

Documentation

Showing up to 5 results
|